| time (UTC) | temp F | wind direction | speed MPH | gust MPH | rain 1hr in | rain 24hr in | rain mn in | humidity % | barometer mb |
| 20260504081542 | 36 | 220 | 22.0 | 37.0 | 0.01 | 0.73 | 0.11 | 97 | 981.6 |
| 20260504044537 | 38 | 228 | 15.0 | 29.0 | 0.00 | 0.65 | 0.03 | 99 | 975.1 |
| 20260504043044 | 38 | 184 | 15.0 | 28.0 | 0.01 | 0.65 | 0.03 | 99 | 974.3 |
| 20260504041541 | 38 | 179 | 9.0 | 24.0 | 0.01 | 0.65 | 0.03 | 98 | 973.7 |
| 20260504040040 | 37 | 150 | 11.0 | 23.0 | 0.03 | 0.65 | 0.03 | 98 | 973.3 |
| 20260504034543 | 38 | 149 | 15.0 | 32.0 | 0.05 | 0.65 | 0.03 | 98 | 973.4 |
| 20260504033050 | 38 | 154 | 18.0 | 34.0 | 0.05 | 0.64 | 0.02 | 98 | 974.1 |
| 20260504031538 | 38 | 105 | 20.0 | 42.0 | 0.05 | 0.64 | 0.02 | 98 | 974.8 |
| 20260504030059 | 38 | 117 | 18.0 | 39.0 | 0.03 | 0.62 | 0.00 | 98 | 975.6 |
| 20260504024544 | 38 | 103 | 23.0 | 42.0 | 0.01 | 0.60 | 0.60 | 98 | 976.6 |
| 20260504023038 | 38 | 90 | 22.0 | 35.0 | 0.00 | 0.58 | 0.58 | 98 | 977.7 |
| 20260504021545 | 38 | 130 | 23.0 | 38.0 | 0.00 | 0.58 | 0.58 | 98 | 978.7 |
| 20260504020046 | 39 | 138 | 18.0 | 34.0 | 0.00 | 0.58 | 0.58 | 98 | 979.6 |
| 20260504014543 | 39 | 137 | 19.0 | 31.0 | 0.00 | 0.58 | 0.58 | 98 | 980.5 |
| 20260504013041 | 40 | 105 | 19.0 | 33.0 | 0.01 | 0.58 | 0.58 | 98 | 981.4 |
| 20260504011538 | 41 | 149 | 17.0 | 29.0 | 0.02 | 0.58 | 0.58 | 98 | 982.0 |
| 20260504010040 | 41 | 156 | 16.0 | 28.0 | 0.03 | 0.58 | 0.58 | 98 | 982.6 |
| 20260504004540 | 41 | 92 | 17.0 | 29.0 | 0.04 | 0.58 | 0.58 | 99 | 983.2 |
| 20260504003042 | 40 | 96 | 19.0 | 38.0 | 0.03 | 0.58 | 0.58 | 98 | 983.4 |
| 20260504001544 | 39 | 108 | 18.0 | 38.0 | 0.03 | 0.57 | 0.57 | 98 | 984.0 |
| 20260504000104 | 39 | 72 | 17.0 | 36.0 | 0.03 | 0.56 | 0.56 | 98 | 984.6 |
| 20260503234540 | 39 | 97 | 24.0 | 40.0 | 0.04 | 0.55 | 0.55 | 98 | 984.9 |
| 20260503233040 | 39 | 62 | 27.0 | 51.0 | 0.07 | 0.55 | 0.55 | 98 | 985.9 |
| 20260503231546 | 39 | 87 | 19.0 | 47.0 | 0.10 | 0.54 | 0.54 | 98 | 986.9 |
| 20260503230045 | 39 | 88 | 21.0 | 42.0 | 0.15 | 0.52 | 0.52 | 98 | 987.4 |
| 20260503224537 | 38 | 58 | 18.0 | 39.0 | 0.18 | 0.51 | 0.51 | 98 | 988.2 |
| 20260503223041 | 38 | 80 | 17.0 | 33.0 | 0.21 | 0.47 | 0.47 | 98 | 989.4 |
| 20260503221541 | 37 | 58 | 19.0 | 33.0 | 0.23 | 0.44 | 0.44 | 98 | 990.4 |
| 20260503220038 | 37 | 64 | 20.0 | 33.0 | 0.18 | 0.38 | 0.38 | 98 | 991.8 |
| 20260503214538 | 37 | 71 | 17.0 | 32.0 | 0.14 | 0.32 | 0.32 | 97 | 993.1 |
| 20260503213044 | 37 | 57 | 13.0 | 33.0 | 0.12 | 0.26 | 0.26 | 97 | 993.7 |
| 20260503211543 | 37 | 78 | 15.0 | 28.0 | 0.11 | 0.21 | 0.21 | 97 | 994.4 |
| 20260503210040 | 37 | 67 | 19.0 | 36.0 | 0.12 | 0.20 | 0.20 | 97 | 994.5 |
| 20260503204540 | 37 | 56 | 15.0 | 32.0 | 0.11 | 0.18 | 0.18 | 97 | 995.5 |
| 20260503203043 | 37 | 75 | 16.0 | 28.0 | 0.09 | 0.14 | 0.14 | 97 | 995.8 |
| 20260503201539 | 38 | 77 | 20.0 | 32.0 | 0.06 | 0.10 | 0.10 | 96 | 996.9 |
| 20260503200045 | 39 | 64 | 21.0 | 36.0 | 0.05 | 0.08 | 0.08 | 96 | 996.7 |
| 20260503194538 | 40 | 71 | 21.0 | 34.0 | 0.07 | 0.07 | 0.07 | 96 | 997.7 |
| 20260503193042 | 41 | 67 | 13.0 | 25.0 | 0.05 | 0.05 | 0.05 | 96 | 998.8 |
| 20260503191539 | 41 | 79 | 13.0 | 22.0 | 0.04 | 0.04 | 0.04 | 95 | 999.1 |
| 20260503190038 | 41 | 31 | 12.0 | 24.0 | 0.03 | 0.03 | 0.03 | 94 | 1000.1 |
| 20260503184556 | 42 | 60 | 16.0 | 31.0 | 0.00 | 0.00 | 0.00 | 91 | 1001.2 |
| 20260503183037 | 43 | 50 | 16.0 | 30.0 | 0.00 | 0.00 | 0.00 | 90 | 1001.0 |
| 20260503181537 | 42 | 65 | 15.0 | 31.0 | 0.00 | 0.00 | 0.00 | 91 | 1002.9 |
| 20260503180038 | 41 | 47 | 9.0 | 21.0 | 0.00 | 0.00 | 0.00 | 93 | 1003.7 |
| 20260503174540 | 41 | 20 | 14.0 | 23.0 | 0.00 | 0.00 | 0.00 | 92 | 1004.0 |
| 20260503173038 | 41 | 44 | 9.0 | 17.0 | 0.00 | 0.00 | 0.00 | 90 | 1005.2 |
| 20260503171602 | 42 | 52 | 8.0 | 16.0 | 0.00 | 0.00 | 0.00 | 86 | 1006.1 |